{"data":{"norad_id":65194,"epoch":"2026-09-20T21:52:01.876512Z","epoch_age_seconds":84876,"freshness":"FRESH","line1":"1 65194U 25175W   26263.91113283  .00000935  00000+0  31294-4 0  9991","line2":"2 65194  97.2849 132.8596 0001743  88.2351 271.9092 15.33440889 62162","mean_motion":15.33440889,"eccentricity":0.0001743,"inclination_deg":97.2849,"raan_deg":132.8596,"arg_perigee_deg":88.2351,"mean_anomaly_deg":271.9092,"bstar":3.1294e-5,"rev_number":6216,"period_min":93.906456409876,"perigee_km":464.36255036277,"apogee_km":466.74826153548,"semimajor_km":6843.6924059491,"source":"CELESTRAK","updated_at":"2026-09-21T09:00:35.531914Z"}}